Vorticity
-0 -1 -2 -1 -1 -0 1 2 4 4 4 2 2 2 3 4 5 7 9 10 9 7 5 12 15 13 1 -0 -1 -0 1 3 4 4 4 4 4 3 3 2 2 2 1 1 1 1 2 2 2 2 1 2 2 2 2 2 2 2 3 3 4 4 3 3 2 2 4 8 11 12 12 11 10 8 5 6 6 6 6 6 6 6 6 5 5 4 4 4 4 4 4 4 4 4 4 5 5 5 5 4 4 4 4
1 -0 -2 -1 -1 -1 -0 2 3 4 4 3 2 2 4 5 6 8 9 10 9 7 6 15 16 11 -1 -1 -1 -0 2 4 5 5 5 5 4 3 2 2 2 2 1 1 1 2 2 2 1 1 1 1 1 2 2 2 3 3 4 3 3 4 4 5 5 5 5 10 12 13 11 10 9 7 5 6 6 6 6 6 6 6 5 5 4 4 4 4 4 4 4 4 4 4 4 5 5 5 5 5 4 4 4
3 1 -0 -1 -1 -1 -1 1 2 4 5 4 3 3 4 5 6 8 9 9 8 8 9 19 16 7 -3 -1 -0 1 3 5 5 5 5 5 4 3 2 2 2 2 1 1 1 2 2 1 1 0 -0 0 0 1 2 2 3 4 5 4 4 4 5 6 7 7 6 12 15 16 13 10 8 7 6 5 6 6 6 6 6 5 5 5 4 4 4 4 4 4 4 4 4 4 4 4 5 5 5 5 4 4 4
5 3 1 -0 -1 -1 -1 -0 1 3 5 5 4 3 3 5 6 7 8 9 8 9 13 21 15 4 -3 -1 -0 1 4 5 6 5 5 5 3 2 2 2 2 2 2 2 2 1 1 1 -0 -1 -1 -1 -0 1 2 2 3 4 5 5 5 5 5 6 6 6 6 11 15 17 14 10 8 6 6 5 5 6 6 6 5 5 5 5 4 4 4 4 4 4 4 4 4 4 4 4 4 5 5 5 5 5 4
6 5 3 1 0 -1 -1 -1 0 2 4 5 4 3 3 5 5 6 8 8 8 10 17 20 11 0 -3 -1 0 2 4 6 6 6 6 4 3 2 2 2 2 2 2 2 1 1 1 -0 -1 -1 -1 -1 -0 1 2 2 3 3 3 4 5 5 5 6 6 5 5 9 13 15 12 9 7 6 5 5 6 6 6 5 5 5 5 5 4 4 3 4 4 4 4 4 4 4 4 4 4 4 5 5 5 5 4
7 6 5 3 2 1 0 -1 -1 0 2 5 5 4 3 4 4 5 5 6 7 11 19 14 6 -2 -2 -0 1 2 4 6 6 6 6 4 3 2 2 2 2 2 1 1 1 1 0 -0 -1 -1 -0 0 1 1 2 2 2 2 2 3 4 5 5 5 5 5 5 9 11 12 10 7 6 5 5 6 6 6 6 5 5 5 5 5 4 4 3 4 4 4 4 4 3 3 4 4 4 4 4 4 4 4 4
8 7 6 5 3 2 1 0 -1 -0 1 4 4 4 3 3 4 5 5 5 6 10 16 8 1 -2 -1 0 1 2 4 6 6 6 6 4 3 2 2 1 1 1 1 1 1 1 -0 -0 -0 0 1 1 2 2 2 2 2 2 1 2 3 5 6 5 5 5 6 8 10 10 8 6 5 5 6 6 6 7 7 5 5 5 5 4 4 3 3 3 3 4 4 3 3 3 3 4 4 4 4 4 4 4 4
7 7 6 6 4 3 2 1 0 -0 1 3 4 4 3 4 4 5 5 6 7 9 12 6 2 0 0 2 2 2 3 5 6 6 6 4 3 2 1 1 0 0 1 1 1 0 -0 -1 -0 1 2 2 3 3 3 2 2 2 1 2 4 6 7 6 5 6 7 8 9 9 8 7 6 6 6 6 7 7 7 6 5 5 5 4 4 3 3 3 3 3 3 3 3 3 3 4 4 4 4 4 4 4 4
7 7 7 6 6 4 3 2 1 -0 -1 -1 2 5 6 4 4 4 6 7 8 10 12 8 6 5 2 3 2 2 2 3 5 6 6 4 3 2 1 0 0 1 1 1 1 -0 -1 -1 0 1 2 3 3 3 3 3 3 2 1 3 5 8 8 6 6 6 8 8 8 8 9 8 7 7 6 6 7 7 8 6 5 5 5 4 4 3 3 3 3 3 3 3 3 3 3 3 4 4 4 4 4 4 4
7 8 7 7 6 5 4 3 2 1 -1 -1 -1 1 5 5 5 5 5 6 8 10 11 11 10 8 4 3 2 1 2 2 3 5 5 4 3 2 2 1 1 2 2 1 0 -1 -1 -0 0 1 2 3 3 4 4 4 3 3 2 4 7 9 11 8 6 6 8 7 7 8 10 9 9 7 6 6 7 7 8 7 6 5 5 5 4 3 3 3 3 3 3 3 3 3 3 3 3 4 4 4 4 4 4
8 8 8 7 7 6 5 4 3 2 1 -1 -2 -1 3 5 6 6 5 6 7 9 10 12 12 10 6 3 1 1 1 1 2 3 4 4 4 3 2 2 3 3 2 1 0 -1 -1 -0 0 1 1 2 3 3 4 4 4 4 4 5 7 9 15 9 7 6 9 7 6 7 9 10 9 8 6 6 6 7 8 7 6 6 5 5 4 3 3 3 3 3 3 3 3 3 3 3 3 3 4 4 4 4 4
9 9 9 8 7 7 6 5 4 3 2 0 -1 -1 1 5 7 7 6 6 6 7 8 11 12 11 7 3 2 1 1 1 2 2 3 4 4 3 3 3 3 3 2 1 -0 -0 -0 1 1 1 1 2 2 2 3 3 3 4 4 5 6 9 16 11 8 8 10 8 7 7 9 10 9 7 6 6 6 7 8 7 7 6 6 5 4 4 3 3 3 3 3 3 3 3 3 3 3 3 3 3 4 4 4
9 9 10 9 8 7 6 5 5 4 3 2 -1 -2 -1 3 6 8 8 7 6 7 7 9 12 12 9 5 2 1 1 2 2 2 2 3 3 4 3 3 3 2 1 0 -0 -0 1 1 1 1 1 2 2 2 2 3 4 4 4 5 5 9 17 14 10 9 10 8 8 8 9 9 8 7 6 5 6 7 8 8 7 7 6 5 4 4 3 3 3 3 2 3 3 3 3 3 3 3 3 3 4 4 4
9 10 10 10 9 8 7 6 5 4 3 3 1 -2 -3 1 5 8 9 8 7 6 6 7 10 13 13 8 3 1 1 2 3 2 1 2 3 4 4 3 3 2 0 -0 -0 0 1 2 2 2 2 2 2 2 2 4 4 4 4 4 4 8 17 17 12 8 9 7 7 9 9 8 7 6 6 6 6 7 8 8 8 7 6 5 4 4 3 3 3 3 2 3 3 3 3 3 3 3 3 3 4 4 4
9 9 10 10 10 9 8 7 6 5 4 3 2 -0 -3 -1 2 7 9 8 8 7 5 8 14 19 19 10 4 1 0 2 3 4 2 1 2 3 4 3 2 1 -0 -1 -0 0 2 2 2 2 2 2 2 2 3 4 4 3 2 2 5 9 17 17 13 9 9 5 6 9 10 7 6 6 6 6 7 7 8 9 8 7 6 5 5 4 3 3 3 3 3 3 3 3 3 3 3 3 3 3 3 4 4
10 9 9 10 10 10 9 8 7 6 5 4 2 1 -1 -3 -0 4 8 9 8 7 5 13 25 31 25 11 4 1 0 2 4 5 4 2 1 2 3 3 2 0 -1 -1 -0 1 2 2 3 3 3 2 2 2 4 4 3 2 1 1 6 11 17 14 13 12 9 5 6 9 10 8 7 7 7 7 7 7 8 9 8 7 6 5 5 4 4 4 3 3 3 3 3 3 3 3 3 3 3 3 3 4 4
11 9 8 9 10 10 10 10 9 7 6 4 3 2 -0 -2 -2 1 6 8 9 8 4 18 28 31 21 9 4 2 0 2 4 6 6 3 1 1 2 3 1 -0 -1 -1 0 1 1 2 3 3 3 2 2 3 4 4 2 1 -0 1 6 12 15 12 12 12 10 7 7 8 9 8 7 8 8 8 8 7 8 9 8 7 6 5 5 5 5 4 4 3 3 3 3 3 3 3 3 3 2 3 3 3 4
13 11 9 8 8 9 10 10 10 9 7 6 4 3 1 -1 -2 -2 2 7 10 10 6 15 17 14 9 5 3 2 0 2 4 6 7 4 2 0 0 1 0 -1 -1 0 1 1 2 3 4 3 3 3 3 4 5 3 2 0 -1 1 7 12 15 13 12 11 11 10 8 7 7 7 8 9 9 9 8 7 7 8 8 7 6 5 5 5 5 4 4 3 3 3 3 3 3 3 3 2 2 2 3 3 4
13 12 11 9 8 8 8 9 10 10 9 7 5 4 3 1 -2 -4 -1 5 10 12 9 11 7 2 5 4 4 3 1 2 5 6 7 5 3 0 -1 -1 -1 -1 -0 1 1 1 2 3 4 3 2 3 4 6 5 3 1 -0 -1 2 8 14 16 14 12 11 11 11 10 9 7 6 8 9 10 9 7 7 6 7 8 7 6 5 5 5 5 4 4 4 3 3 3 3 3 3 3 2 2 3 3 3 4
13 13 12 11 9 8 7 8 9 10 10 9 7 6 4 3 -0 -3 -5 3 10 14 13 12 6 1 6 5 4 4 2 3 5 6 7 6 4 2 -1 -2 -2 -2 0 1 2 2 2 3 3 2 2 4 5 6 5 2 0 -0 -1 3 10 15 16 13 11 11 12 12 11 8 5 5 8 10 11 8 7 6 6 7 7 7 6 6 5 5 4 4 4 4 4 4 4 3 3 3 3 3 3 3 3 4 4
12 12 13 12 11 9 8 8 9 10 11 10 9 8 6 4 2 -2 -7 -1 8 16 16 15 10 6 5 4 4 4 4 4 5 6 7 7 6 4 1 -1 -2 -2 0 2 2 2 2 2 2 2 3 5 6 6 3 1 0 -0 -1 5 11 16 16 12 11 11 14 12 9 6 3 4 7 9 10 8 6 6 6 7 7 7 7 6 5 5 4 4 4 4 4 4 4 4 4 3 3 3 3 3 3 4 4
12 12 12 12 12 11 9 8 8 9 10 11 11 10 9 6 4 0 -6 -7 3 14 16 18 17 11 -0 -0 2 4 4 4 5 6 6 7 6 5 4 1 -1 -1 1 3 3 2 1 1 1 2 4 6 6 5 2 1 -0 -0 -0 6 13 16 15 12 11 12 15 11 8 4 0 2 5 9 9 7 6 5 6 7 7 7 7 6 6 5 4 4 4 4 4 4 4 4 4 4 4 3 3 4 4 4 5
11 11 11 12 12 12 11 10 9 8 8 9 10 11 10 9 6 3 -2 -9 -4 6 14 19 21 14 -6 -6 -2 3 4 4 4 5 6 6 6 6 6 2 0 -0 2 3 3 2 0 0 1 3 5 6 5 3 1 0 -0 -0 0 8 14 17 15 11 10 12 16 10 6 3 -2 0 4 7 7 5 5 6 6 7 7 7 7 7 6 5 4 4 4 4 4 4 4 4 4 4 4 4 4 4 4 4 5
10 11 11 11 11 12 12 11 10 8 7 8 9 10 11 10 8 6 2 -6 -8 -4 9 18 22 15 -4 -3 0 4 5 3 3 4 5 6 7 7 7 4 2 1 3 3 3 1 -0 0 1 3 6 6 4 2 0 0 -0 0 1 9 14 16 13 9 9 12 16 9 6 3 -1 1 4 6 5 4 5 6 7 8 8 8 7 7 7 6 5 4 4 4 4 4 4 4 4 4 4 4 4 4 5 5 5
9 11 11 11 11 11 12 12 11 9 7 7 7 9 10 10 10 9 6 -1 -8 -8 4 18 21 15 2 3 5 5 6 2 2 3 6 7 7 8 7 4 3 3 4 4 2 0 -0 1 2 4 6 6 4 2 0 0 -0 0 2 10 15 16 12 8 9 11 13 12 9 4 1 2 3 4 2 3 5 6 7 8 8 8 7 7 7 7 6 5 5 4 4 4 4 4 5 5 5 5 5 5 5 5 5
9 10 11 11 10 10 11 12 12 11 9 6 6 7 8 9 10 10 10 4 -4 -7 1 18 22 16 8 7 7 7 6 2 0 2 5 7 8 8 7 5 3 4 5 4 2 0 0 2 4 5 6 5 4 2 0 0 -0 0 3 11 15 15 11 9 8 9 10 14 11 5 3 4 3 2 -0 2 4 6 7 8 8 8 8 7 7 7 7 6 5 4 4 4 4 5 5 5 5 5 5 5 5 5 5
9 10 12 12 11 10 10 12 13 12 11 7 5 5 6 8 9 10 11 9 2 -3 -1 17 22 18 10 7 9 12 11 4 -0 -1 3 6 8 8 7 5 5 5 6 4 2 1 1 3 5 6 6 5 3 2 0 0 -0 1 4 12 15 14 10 8 7 8 8 15 14 8 4 4 2 0 -1 1 4 6 7 7 7 7 7 7 8 8 7 7 6 5 4 4 5 5 5 5 5 5 5 5 5 5 5
11 10 11 12 11 10 10 11 13 13 13 9 6 4 5 6 8 10 12 11 7 1 -1 14 20 18 9 7 8 12 17 10 2 -2 2 6 7 7 6 6 6 6 6 4 2 2 2 4 6 6 5 4 3 2 1 0 -0 1 6 13 15 13 9 7 7 8 10 18 17 10 5 4 2 -1 -1 1 4 6 6 6 6 7 7 7 7 8 8 7 6 5 5 5 6 6 6 5 5 5 5 5 5 5 5
14 12 11 12 12 11 10 10 12 13 14 11 7 4 4 5 7 9 11 12 9 5 1 8 15 16 7 4 1 1 11 18 12 3 2 5 6 6 6 7 7 7 5 4 2 2 2 5 6 6 4 4 3 2 1 0 -0 2 7 13 14 12 9 7 7 9 14 21 18 12 7 4 -0 -3 -1 2 4 5 5 5 6 6 6 6 7 8 8 7 6 6 6 6 6 6 6 6 5 5 5 5 6 5 5
16 14 12 13 13 12 10 10 11 13 14 13 9 6 4 5 6 8 11 13 11 7 2 3 8 10 5 -4 -7 -1 22 31 25 13 6 4 4 5 7 7 7 5 4 3 2 2 3 5 5 5 4 4 3 2 1 0 -0 2 9 13 14 12 8 7 7 10 16 19 16 10 6 1 -3 -3 0 2 4 4 4 5 6 6 6 6 7 7 8 7 6 6 6 7 7 6 6 6 6 5 5 6 6 5 5
17 15 13 13 13 13 11 10 11 13 14 14 11 8 5 5 7 8 10 13 12 9 3 0 -2 -1 3 -11 -11 5 40 38 29 17 10 5 4 5 8 6 4 3 3 3 2 3 4 5 5 4 4 4 3 2 1 0 0 3 10 14 13 11 8 7 8 11 16 16 12 7 4 -0 -2 -2 2 3 4 4 5 7 7 7 6 7 7 7 7 6 6 6 7 7 7 6 6 6 6 5 5 6 6 6 5
18 15 13 13 13 14 13 10 10 12 14 14 13 10 7 6 7 8 9 12 13 11 5 -0 -8 -11 -5 -6 -3 8 33 30 21 12 10 5 4 5 7 5 3 2 3 3 3 4 5 5 5 4 4 4 3 2 1 0 1 4 11 13 12 10 8 7 9 12 14 12 9 5 3 1 0 1 4 4 4 5 7 9 9 8 7 7 7 7 6 6 6 6 6 6 6 6 6 6 6 6 6 6 6 6 5
19 16 13 12 13 14 14 11 10 11 14 15 14 12 10 7 7 7 9 11 13 12 8 2 -6 -13 -15 6 12 12 11 13 10 6 3 2 2 4 6 4 3 3 3 3 4 5 4 5 4 4 4 4 3 2 1 0 1 5 12 13 12 9 8 7 9 11 12 9 6 4 5 4 4 5 4 2 3 5 9 11 10 9 7 7 7 6 6 5 5 6 6 6 6 6 6 6 6 6 6 6 6 6 5
20 17 13 12 12 13 14 12 11 11 13 15 15 14 11 7 6 7 9 10 12 13 12 5 -2 -9 -11 17 24 18 7 7 5 2 -2 -3 -0 3 6 5 4 4 3 3 4 4 3 4 4 3 4 3 3 2 1 0 1 5 12 13 11 9 8 7 9 10 9 6 5 5 7 6 5 4 1 -0 1 5 8 10 10 9 7 7 6 6 6 6 6 6 6 6 6 6 6 6 6 6 6 6 6 6 5
22 18 14 12 12 13 14 12 11 10 12 15 16 15 12 7 5 6 9 10 12 13 13 9 2 -3 -1 20 23 18 16 9 7 6 4 -4 -1 5 9 7 5 4 3 4 4 4 3 3 3 3 4 3 2 2 1 0 2 6 13 13 11 9 8 7 7 8 6 5 5 6 7 6 4 2 -1 -1 0 3 6 8 9 9 8 7 6 6 6 6 6 6 6 6 6 6 6 6 6 6 6 6 6 6 6
23 20 15 12 11 12 14 13 11 11 12 15 16 16 12 7 4 4 8 9 11 13 15 12 6 4 11 21 17 13 20 13 11 11 9 -3 -1 8 12 8 6 5 3 4 4 3 3 3 3 3 4 3 2 1 1 0 3 7 14 13 11 9 8 7 6 6 5 6 6 6 6 5 3 1 -1 -1 1 2 4 6 7 8 8 7 6 6 7 7 7 7 6 6 6 6 6 6 6 6 6 6 6 6 6
24 22 17 12 11 11 13 13 12 11 13 15 17 16 13 7 3 3 6 8 10 12 15 13 10 11 22 25 16 9 16 12 11 11 8 -5 -2 7 14 10 7 5 4 3 3 3 3 3 3 4 4 3 2 1 0 0 4 9 14 13 11 9 8 7 6 5 5 5 6 6 4 4 3 2 1 1 2 3 4 5 7 8 9 8 7 7 7 7 7 7 6 6 6 6 6 6 6 6 7 6 6 6 6
25 23 18 13 11 12 14 13 11 11 13 15 17 16 12 7 3 2 4 6 9 11 14 12 12 16 28 24 14 7 12 8 9 9 5 -5 -4 4 14 10 7 4 3 3 3 3 3 3 4 4 4 2 1 0 0 1 5 10 14 13 11 10 9 8 7 6 5 5 5 6 6 6 5 5 4 3 3 4 4 5 6 8 9 8 8 8 8 7 7 7 6 6 6 6 6 6 6 7 7 6 6 6 6
26 25 20 14 12 12 14 13 11 10 14 15 16 16 13 7 3 1 2 5 8 11 13 11 14 21 32 24 14 9 13 10 10 9 3 -5 -5 1 9 9 7 3 3 3 3 4 3 3 4 4 4 2 1 0 -0 2 6 10 14 12 11 10 9 8 7 6 5 5 5 6 7 8 8 7 6 6 5 5 5 6 7 8 8 9 8 8 8 7 7 6 6 6 6 6 6 6 7 7 7 6 6 6 6
27 26 21 16 13 13 14 13 11 9 13 15 16 16 12 8 3 1 3 6 9 10 12 11 17 26 33 22 15 13 16 14 12 8 2 -5 -3 2 6 8 6 4 3 3 3 4 3 3 4 4 4 2 1 0 0 3 7 11 13 12 11 10 10 9 7 6 5 5 6 6 7 8 8 8 7 6 6 5 5 6 6 7 8 8 8 8 7 7 6 6 6 6 6 6 6 6 6 7 7 6 6 6 6
30 28 19 17 15 13 13 13 10 9 11 15 17 16 14 11 6 3 5 7 9 11 11 10 17 25 26 18 16 16 18 16 12 6 0 -6 -1 6 4 7 7 4 3 3 3 4 3 4 4 4 3 1 0 0 1 4 8 12 13 11 11 11 10 9 7 6 6 6 6 7 7 8 8 7 7 6 6 5 5 6 6 7 7 8 8 7 7 6 6 5 5 6 6 6 6 6 6 6 6 6 6 6 6
33 30 19 17 15 13 12 12 11 9 9 14 16 17 15 13 8 5 7 7 8 9 9 5 7 13 17 14 15 17 18 16 10 4 -1 -5 0 6 0 7 7 5 3 3 4 4 4 4 4 4 3 1 0 1 2 5 9 12 12 11 11 11 10 9 7 6 6 6 6 7 7 7 7 7 7 7 6 6 5 5 6 7 7 7 7 7 6 5 5 5 5 5 6 6 6 6 6 6 6 6 6 6 6
35 32 20 16 14 13 12 11 11 9 8 13 16 17 14 10 7 5 7 7 8 8 8 -2 -5 -2 11 11 13 17 20 14 8 3 -1 -3 2 5 -2 4 6 5 3 4 5 5 5 5 5 4 2 1 1 1 2 6 10 12 11 11 12 11 10 9 7 6 6 6 7 7 7 7 7 7 8 8 7 7 6 6 6 7 7 7 7 6 5 5 5 5 5 5 6 6 6 6 5 5 5 6 6 6 6
34 33 22 15 13 12 12 11 10 9 7 11 16 17 15 8 5 4 5 6 8 9 9 -2 -11 -11 4 8 11 15 19 11 6 2 -2 0 3 4 -3 1 3 3 4 6 6 6 5 5 4 4 2 1 1 1 3 7 10 11 11 12 12 12 10 8 7 6 6 6 7 7 7 7 7 8 8 8 8 7 6 6 6 7 7 7 6 6 5 5 5 5 5 6 6 6 5 5 5 5 5 6 6 7 7
33 32 23 15 12 12 12 11 10 9 7 10 15 17 14 7 4 3 2 4 7 9 10 2 -9 -14 -4 6 11 15 17 8 3 0 -2 3 3 0 -2 1 1 2 5 7 7 7 6 5 4 3 2 1 1 2 4 8 10 11 11 12 12 12 10 8 7 6 6 7 7 7 7 7 7 8 9 9 8 7 6 6 7 7 7 7 6 5 4 4 5 5 6 6 6 5 5 5 5 5 6 6 6 7 7
33 33 25 16 12 11 12 11 11 10 9 9 14 16 10 7 7 8 5 4 5 7 8 6 -3 -10 -8 7 15 18 19 9 1 -3 -2 2 1 -1 0 3 2 2 7 8 8 7 6 5 4 3 2 1 1 2 5 8 10 10 10 12 12 11 10 8 7 6 6 7 7 7 7 7 8 9 9 9 8 7 6 6 6 7 7 6 5 5 4 4 5 5 6 6 6 5 5 5 5 6 6 6 6 7 7
33 33 26 15 11 11 12 11 11 11 11 10 13 14 6 5 8 10 8 5 5 5 8 7 3 -3 -7 6 15 20 20 13 6 1 1 -1 0 2 4 4 3 4 8 9 9 8 6 5 3 2 1 1 1 3 7 9 9 10 10 12 12 11 9 8 7 7 7 7 7 7 7 8 8 9 9 9 8 7 6 6 6 6 6 6 5 4 4 5 5 6 6 6 6 5 5 5 6 6 6 6 6 7 7
33 33 24 14 11 11 12 11 11 11 12 10 12 12 5 3 5 8 10 9 8 9 9 9 7 3 -2 4 10 14 15 17 16 12 2 0 0 3 6 5 5 6 10 10 9 8 6 4 3 2 1 1 2 5 8 9 9 9 10 12 12 11 9 8 7 7 7 7 7 7 7 8 8 9 9 9 8 7 6 6 6 6 6 6 5 5 4 5 5 5 6 6 6 6 6 6 6 6 6 6 6 6 7
32 30 21 14 11 11 13 11 11 11 12 11 11 9 2 2 5 10 12 11 10 10 10 10 9 7 3 2 4 8 15 24 25 18 3 4 3 2 7 8 8 8 8 9 9 7 6 4 2 1 1 1 3 5 8 9 9 9 11 12 12 11 9 8 7 7 6 6 6 7 7 8 9 9 9 9 8 7 6 6 6 7 7 7 6 5 5 5 5 5 6 6 6 6 6 6 6 6 6 6 6 6 7
31 27 18 14 12 12 13 11 11 11 13 12 9 5 -1 2 7 11 13 10 8 6 8 10 10 10 7 3 5 14 28 34 27 12 -3 1 1 2 6 7 7 6 6 7 7 6 5 3 2 1 1 2 4 6 8 8 9 10 12 13 12 11 9 8 7 6 6 6 6 6 7 8 9 9 9 8 8 7 6 6 6 6 7 7 6 5 5 5 5 6 6 6 6 6 6 6 6 6 6 6 6 6 7
30 24 17 13 12 12 13 12 11 12 14 13 7 1 -1 8 14 15 11 8 6 5 7 8 9 10 10 9 17 30 42 35 18 -1 -15 -10 -4 2 8 7 5 4 5 6 6 5 2 1 0 -0 0 2 4 6 7 8 9 11 14 14 12 11 9 8 7 6 5 5 6 6 7 8 8 9 9 8 8 7 6 6 5 6 6 6 6 5 5 5 6 6 6 6 6 6 6 6 6 6 6 6 6 6 7
29 22 16 13 13 13 14 12 11 12 15 13 4 -5 -7 7 18 22 16 9 5 5 6 6 5 5 6 15 30 41 38 21 6 -5 -10 -11 -5 4 12 14 11 7 4 5 4 3 1 0 -0 -0 -0 1 3 5 7 8 10 13 15 14 13 11 9 7 6 6 5 5 5 6 6 7 8 8 8 8 8 7 6 6 5 5 5 5 5 5 5 6 6 6 6 6 6 6 6 6 6 6 6 6 6 6 6
29 22 15 12 13 14 15 14 13 12 14 10 1 -10 -16 8 18 20 16 10 6 4 5 9 7 4 2 19 34 37 20 5 1 4 9 -1 -3 1 9 14 13 9 6 4 2 1 2 2 1 1 2 2 3 5 6 8 11 14 16 14 12 10 8 7 6 5 5 5 5 6 6 7 7 8 8 9 8 8 7 6 5 5 5 5 5 5 6 6 6 6 7 7 6 6 6 6 6 6 6 6 6 6 6
27 19 13 10 13 17 18 15 14 13 13 6 -2 -9 -14 9 19 18 13 11 8 5 4 9 11 10 8 25 28 20 2 -0 4 10 12 1 -4 -3 3 5 6 6 6 4 2 -1 -1 2 2 2 3 5 5 5 6 9 12 15 16 14 11 9 7 6 5 5 5 5 5 6 6 7 8 8 9 9 9 8 7 6 6 5 5 5 5 6 6 6 7 7 7 7 7 6 6 6 6 6 6 6 6 6 6
23 14 10 3 9 18 19 13 13 14 11 5 -2 -7 -11 10 18 18 12 11 9 8 7 8 11 14 18 24 18 6 -6 0 7 9 4 -4 -5 -1 7 6 4 4 5 2 1 1 -2 1 2 3 3 6 7 7 7 10 13 16 16 13 10 8 6 5 5 5 5 5 5 6 6 7 8 8 9 9 9 8 7 6 5 5 5 5 5 6 6 6 7 7 7 7 7 6 6 6 6 6 6 6 6 6 6
19 13 7 -3 5 17 19 12 11 11 11 5 -3 -11 -13 9 19 20 14 11 8 6 7 8 11 16 24 22 11 0 -5 3 8 7 -1 -1 5 9 7 4 4 7 12 9 7 5 2 1 2 4 4 7 9 9 9 12 15 16 15 12 9 7 6 5 5 5 5 5 5 6 7 7 8 9 10 9 9 8 7 6 5 5 4 5 5 5 6 6 7 7 7 7 6 6 6 6 6 6 6 6 6 6 6
19 12 6 -5 1 13 16 12 9 8 12 7 -4 -12 -10 10 20 22 16 12 8 6 5 8 11 16 22 22 12 1 -1 6 8 6 -1 5 14 18 8 -6 -7 -1 8 12 10 7 5 3 3 4 6 7 8 9 11 14 16 16 14 12 9 8 6 6 5 5 5 5 5 6 6 8 9 9 10 10 9 9 8 6 5 5 4 5 5 5 6 6 7 7 7 6 6 6 6 6 6 6 6 6 6 6 6
18 12 8 0 2 8 12 13 9 7 12 6 -5 -10 -1 13 21 21 16 13 9 7 5 7 11 13 14 16 11 7 9 10 8 5 3 10 13 11 -2 -11 -13 -13 -13 -7 -1 3 6 6 6 7 12 13 10 9 12 15 16 16 14 12 10 8 7 6 6 5 5 5 6 6 7 8 9 10 10 10 9 8 7 6 6 5 4 5 5 5 6 6 6 7 6 6 6 6 6 6 6 6 6 6 6 6 6
17 13 10 7 5 7 11 12 9 7 8 -0 -8 -7 6 19 23 21 14 11 8 7 6 8 9 7 5 7 9 13 20 15 8 4 6 13 9 -2 -14 -12 -7 -3 -7 -10 -6 -0 5 7 10 12 14 17 18 16 12 14 16 16 13 12 10 9 7 7 6 6 6 6 6 7 7 8 9 10 10 9 9 8 7 6 6 5 5 5 5 5 6 6 6 6 6 6 6 6 6 6 6 6 6 6 6 6 7
16 13 10 9 7 7 10 9 8 6 2 -7 -8 -1 13 23 24 19 12 8 6 6 7 8 6 2 1 6 14 22 25 15 10 9 12 11 1 -11 -15 -5 4 8 0 -3 -2 -0 0 2 6 10 10 11 19 24 21 16 14 14 13 11 10 9 8 7 7 6 6 6 6 7 8 9 9 9 10 9 9 8 7 6 6 5 5 4 5 5 5 6 6 6 6 6 6 6 6 6 6 6 6 6 6 6 7
16 13 9 8 7 7 7 6 6 4 -4 -10 -5 6 18 24 22 17 11 6 4 5 7 8 4 0 1 11 23 31 24 12 9 12 16 6 -4 -10 -5 8 12 7 -4 -3 -1 2 1 -0 2 4 6 6 10 17 24 22 17 12 10 10 10 10 9 9 8 8 7 7 7 7 8 8 9 9 9 9 9 8 7 6 6 5 4 4 4 5 5 6 6 6 6 6 6 6 6 6 6 6 6 6 6 7 8
Height
3097 3098 3099 3099 3100 3102 3103 3104 3105 3106 3106 3107 3108 3109 3109 3109 3110 3111 3112 3113 3113 3114 3114 3115 3116 3117 3118 3118 3118 3119 3120 3121 3122 3122 3123 3123 3123 3124 3124 3125 3126 3127 3128 3129 3129 3130 3130 3131 3132 3132 3133 3133 3134 3134 3134 3134 3135 3135 3136 3136 3136 3135 3135 3135 3136 3137 3137 3138 3137 3137 3137 3137 3138 3139 3139 3139 3139 3139 3140 3140 3140 3140 3141 3141 3142 3142 3142 3143 3143 3144 3144 3144 3144 3144 3145 3145 3145 3145 3145 3145 3145 3145 3145
3094 3095 3096 3097 3098 3099 3100 3101 3103 3103 3104 3105 3106 3107 3107 3108 3109 3109 3110 3111 3112 3112 3113 3113 3114 3116 3117 3116 3117 3118 3119 3120 3120 3121 3121 3121 3122 3122 3123 3124 3125 3126 3127 3127 3128 3129 3129 3130 3130 3131 3131 3132 3132 3133 3133 3134 3134 3134 3134 3135 3135 3135 3134 3134 3134 3134 3135 3136 3136 3136 3136 3136 3137 3138 3138 3138 3139 3139 3139 3139 3139 3140 3140 3140 3141 3141 3142 3142 3142 3143 3143 3144 3144 3144 3144 3144 3144 3144 3144 3145 3145 3145 3145
3091 3092 3094 3094 3096 3097 3098 3099 3100 3101 3102 3103 3104 3105 3105 3106 3107 3108 3109 3109 3110 3111 3112 3112 3113 3115 3115 3115 3115 3116 3118 3119 3119 3119 3120 3120 3120 3121 3122 3123 3124 3124 3125 3126 3127 3128 3128 3129 3129 3130 3130 3131 3131 3132 3132 3133 3133 3133 3133 3134 3134 3134 3134 3134 3134 3134 3134 3134 3134 3134 3135 3135 3136 3136 3137 3137 3138 3138 3138 3138 3139 3139 3139 3140 3140 3140 3141 3141 3142 3142 3142 3143 3143 3143 3144 3144 3144 3144 3144 3144 3144 3144 3144
3088 3089 3091 3092 3093 3094 3095 3096 3098 3099 3099 3100 3101 3102 3103 3104 3105 3106 3107 3107 3108 3109 3110 3111 3112 3113 3113 3113 3114 3115 3116 3117 3118 3118 3118 3119 3119 3119 3120 3121 3122 3123 3124 3125 3126 3126 3127 3128 3128 3129 3129 3129 3130 3131 3131 3131 3132 3132 3132 3133 3133 3133 3133 3133 3133 3133 3133 3133 3134 3134 3134 3134 3135 3135 3136 3136 3137 3137 3137 3138 3138 3138 3139 3139 3139 3140 3140 3140 3141 3141 3142 3142 3142 3143 3143 3143 3143 3143 3144 3144 3144 3144 3144
3085 3086 3088 3089 3090 3091 3093 3094 3095 3096 3097 3098 3099 3099 3101 3102 3103 3104 3105 3106 3107 3108 3109 3110 3111 3111 3111 3112 3113 3114 3115 3116 3116 3117 3117 3117 3117 3118 3119 3120 3121 3122 3123 3124 3124 3125 3126 3126 3127 3127 3128 3128 3129 3129 3130 3130 3131 3131 3131 3132 3132 3132 3133 3133 3133 3133 3133 3133 3133 3133 3134 3134 3134 3134 3135 3135 3136 3136 3137 3137 3137 3138 3138 3138 3139 3139 3139 3140 3140 3140 3141 3141 3142 3142 3142 3142 3142 3143 3143 3143 3143 3143 3143
3082 3083 3085 3086 3087 3089 3090 3091 3092 3094 3095 3095 3096 3097 3099 3100 3101 3102 3103 3104 3105 3105 3106 3108 3109 3109 3110 3110 3111 3113 3114 3114 3115 3115 3115 3115 3116 3117 3118 3119 3119 3120 3121 3122 3123 3124 3125 3125 3126 3126 3127 3127 3128 3129 3129 3129 3130 3130 3130 3131 3131 3132 3132 3132 3132 3132 3132 3132 3132 3133 3133 3133 3133 3134 3134 3134 3135 3135 3136 3136 3136 3137 3137 3138 3138 3138 3139 3139 3139 3140 3140 3140 3141 3141 3141 3141 3142 3142 3142 3142 3142 3142 3142
3079 3080 3082 3083 3084 3086 3087 3089 3089 3091 3092 3093 3094 3095 3096 3098 3099 3100 3101 3102 3103 3103 3104 3105 3107 3108 3108 3109 3110 3111 3112 3113 3114 3114 3114 3114 3114 3115 3116 3117 3118 3119 3120 3121 3122 3123 3124 3124 3125 3125 3126 3126 3127 3128 3128 3129 3129 3129 3130 3130 3130 3131 3131 3131 3131 3131 3131 3131 3131 3132 3132 3132 3132 3133 3133 3134 3134 3134 3135 3135 3135 3136 3136 3137 3137 3137 3138 3138 3139 3139 3139 3140 3140 3140 3140 3141 3141 3141 3141 3141 3141 3141 3142
3075 3077 3078 3080 3081 3083 3084 3085 3087 3088 3089 3091 3092 3093 3094 3096 3097 3098 3099 3099 3100 3101 3101 3103 3104 3106 3107 3107 3109 3110 3111 3111 3112 3113 3113 3113 3113 3114 3115 3116 3117 3118 3119 3120 3121 3122 3123 3123 3124 3124 3125 3125 3126 3127 3127 3128 3128 3129 3129 3129 3130 3130 3130 3130 3130 3130 3130 3130 3130 3131 3131 3131 3131 3132 3132 3133 3133 3134 3134 3134 3134 3135 3135 3136 3136 3137 3137 3137 3138 3138 3139 3139 3139 3139 3139 3140 3140 3140 3140 3140 3141 3141 3141
3072 3074 3075 3077 3078 3080 3081 3082 3084 3085 3087 3088 3089 3091 3092 3093 3094 3096 3096 3097 3098 3099 3099 3100 3102 3104 3105 3106 3107 3108 3109 3110 3111 3111 3111 3111 3112 3113 3114 3114 3115 3116 3117 3119 3119 3120 3121 3122 3123 3123 3124 3124 3125 3125 3126 3126 3127 3128 3128 3129 3129 3129 3129 3129 3129 3129 3129 3129 3129 3130 3130 3130 3130 3131 3131 3132 3132 3133 3133 3133 3134 3134 3134 3135 3135 3136 3136 3136 3137 3137 3138 3138 3138 3139 3139 3139 3139 3139 3139 3140 3140 3140 3140
3069 3070 3072 3073 3075 3077 3078 3079 3081 3083 3084 3085 3086 3088 3090 3091 3092 3093 3094 3095 3096 3096 3097 3098 3099 3101 3103 3104 3105 3106 3107 3108 3109 3110 3110 3110 3110 3111 3112 3113 3114 3115 3116 3117 3118 3119 3120 3121 3121 3122 3123 3123 3124 3124 3125 3125 3125 3126 3127 3127 3128 3128 3128 3127 3127 3128 3128 3128 3129 3129 3129 3129 3129 3130 3130 3131 3131 3132 3132 3132 3133 3133 3134 3134 3134 3135 3135 3136 3136 3136 3137 3137 3137 3138 3138 3138 3139 3139 3139 3139 3139 3139 3139
3065 3066 3068 3070 3072 3073 3075 3076 3078 3079 3081 3082 3084 3085 3088 3089 3090 3091 3092 3092 3093 3094 3094 3096 3097 3099 3101 3102 3103 3104 3105 3106 3108 3108 3109 3108 3109 3110 3111 3112 3112 3113 3114 3116 3117 3118 3119 3119 3120 3121 3121 3122 3122 3123 3124 3124 3124 3124 3125 3125 3126 3126 3126 3126 3126 3126 3127 3127 3128 3128 3128 3128 3129 3129 3129 3130 3130 3131 3131 3131 3132 3132 3133 3133 3134 3134 3134 3135 3135 3135 3136 3136 3136 3137 3137 3137 3138 3138 3138 3138 3138 3138 3138
3061 3063 3064 3066 3068 3070 3071 3073 3074 3076 3078 3079 3081 3083 3085 3086 3087 3088 3089 3090 3090 3091 3092 3094 3095 3096 3098 3100 3101 3102 3104 3105 3106 3107 3107 3107 3107 3108 3109 3110 3111 3112 3113 3114 3115 3116 3117 3118 3119 3119 3120 3120 3121 3122 3123 3123 3123 3123 3123 3124 3124 3124 3125 3125 3125 3125 3126 3126 3127 3127 3127 3127 3127 3128 3128 3129 3129 3130 3130 3130 3131 3131 3132 3132 3133 3133 3134 3134 3134 3135 3135 3135 3135 3136 3136 3136 3137 3137 3137 3137 3137 3137 3138
3058 3059 3060 3062 3064 3066 3068 3069 3071 3073 3075 3077 3079 3080 3082 3084 3084 3085 3086 3087 3088 3089 3090 3092 3093 3095 3096 3099 3100 3100 3102 3103 3104 3105 3106 3105 3106 3107 3108 3109 3109 3110 3111 3113 3114 3114 3115 3116 3117 3118 3118 3119 3119 3120 3121 3122 3122 3122 3122 3122 3123 3123 3124 3124 3124 3124 3124 3125 3125 3126 3126 3126 3126 3127 3127 3128 3128 3129 3129 3129 3129 3130 3130 3131 3132 3132 3133 3133 3133 3134 3134 3134 3135 3135 3135 3135 3136 3136 3136 3136 3137 3137 3137
3054 3055 3057 3058 3060 3062 3064 3066 3068 3069 3071 3074 3076 3077 3079 3081 3082 3083 3084 3084 3085 3087 3088 3089 3091 3093 3094 3097 3098 3098 3100 3101 3103 3104 3104 3104 3104 3105 3106 3107 3108 3109 3109 3111 3112 3113 3114 3115 3116 3116 3117 3118 3118 3119 3119 3120 3120 3121 3121 3121 3121 3122 3123 3124 3123 3123 3123 3124 3124 3124 3125 3125 3125 3126 3126 3126 3127 3128 3128 3128 3129 3129 3129 3130 3131 3131 3132 3132 3132 3133 3133 3134 3134 3134 3134 3134 3135 3135 3135 3135 3136 3136 3136
3050 3052 3053 3054 3056 3059 3060 3062 3064 3066 3068 3070 3073 3074 3076 3078 3079 3080 3081 3082 3083 3084 3086 3087 3089 3090 3092 3095 3096 3096 3098 3099 3101 3102 3103 3103 3103 3103 3104 3105 3106 3107 3108 3109 3110 3111 3112 3113 3114 3115 3116 3116 3117 3118 3118 3119 3119 3119 3119 3120 3120 3120 3121 3122 3123 3122 3122 3122 3123 3123 3123 3124 3124 3125 3125 3125 3126 3126 3127 3127 3128 3128 3129 3129 3129 3130 3131 3131 3131 3132 3132 3133 3133 3133 3134 3134 3134 3134 3134 3135 3135 3135 3135
3047 3048 3050 3051 3053 3055 3057 3059 3061 3063 3065 3067 3069 3072 3073 3074 3076 3078 3079 3079 3081 3082 3084 3086 3087 3088 3089 3092 3094 3095 3096 3098 3099 3100 3101 3101 3101 3101 3102 3103 3104 3104 3106 3107 3108 3110 3111 3112 3113 3114 3114 3115 3116 3116 3117 3117 3118 3118 3118 3119 3119 3119 3120 3120 3121 3122 3122 3121 3121 3121 3122 3122 3123 3124 3124 3124 3125 3125 3126 3126 3127 3127 3128 3128 3129 3129 3130 3130 3131 3131 3131 3132 3132 3132 3133 3133 3133 3133 3134 3134 3134 3134 3134
3043 3045 3046 3048 3049 3051 3054 3055 3057 3059 3062 3064 3066 3068 3070 3071 3073 3074 3076 3077 3079 3080 3083 3085 3085 3086 3087 3089 3092 3093 3094 3095 3097 3098 3098 3098 3099 3099 3100 3101 3102 3103 3104 3105 3107 3108 3109 3110 3111 3112 3113 3114 3115 3115 3116 3116 3116 3117 3117 3117 3118 3118 3118 3118 3119 3119 3120 3119 3120 3120 3120 3121 3122 3122 3123 3124 3124 3124 3125 3125 3126 3126 3127 3127 3128 3128 3129 3129 3130 3130 3130 3131 3131 3131 3132 3132 3132 3132 3133 3133 3133 3133 3133
3039 3041 3043 3044 3046 3048 3050 3052 3054 3056 3058 3060 3062 3065 3067 3069 3070 3071 3074 3075 3076 3079 3081 3084 3084 3084 3085 3088 3090 3091 3092 3093 3094 3095 3096 3096 3097 3098 3098 3099 3099 3101 3102 3104 3105 3107 3108 3109 3110 3111 3112 3113 3114 3114 3115 3115 3116 3116 3116 3116 3117 3117 3116 3117 3117 3117 3117 3118 3119 3119 3120 3120 3120 3121 3122 3122 3123 3123 3124 3124 3125 3125 3126 3126 3127 3128 3128 3129 3129 3129 3130 3130 3130 3130 3131 3131 3131 3131 3132 3132 3132 3132 3132
3035 3037 3039 3041 3043 3045 3047 3049 3050 3052 3054 3057 3059 3061 3064 3066 3067 3069 3070 3073 3074 3076 3079 3082 3082 3082 3083 3086 3089 3089 3089 3090 3091 3093 3094 3094 3095 3095 3096 3097 3097 3099 3100 3102 3104 3105 3106 3107 3108 3109 3111 3112 3112 3113 3114 3114 3114 3115 3115 3115 3116 3116 3116 3116 3116 3116 3116 3117 3118 3119 3119 3119 3119 3120 3121 3121 3122 3122 3123 3124 3124 3125 3125 3125 3126 3127 3127 3128 3128 3128 3129 3129 3129 3129 3130 3130 3130 3130 3131 3131 3131 3131 3131
3031 3033 3035 3037 3039 3041 3043 3045 3047 3049 3051 3054 3056 3058 3060 3063 3065 3066 3068 3070 3072 3074 3076 3079 3081 3081 3081 3084 3087 3088 3086 3088 3089 3090 3091 3092 3093 3093 3094 3094 3096 3097 3099 3100 3102 3103 3104 3105 3107 3108 3109 3110 3111 3112 3113 3113 3113 3114 3114 3114 3115 3114 3114 3114 3114 3115 3115 3116 3117 3117 3118 3119 3119 3119 3120 3120 3121 3121 3122 3123 3123 3124 3124 3125 3125 3126 3126 3127 3127 3128 3128 3128 3128 3129 3129 3129 3129 3129 3130 3130 3130 3130 3130
3028 3029 3031 3034 3036 3038 3040 3042 3044 3046 3048 3051 3053 3055 3057 3060 3062 3064 3066 3068 3070 3072 3073 3076 3079 3079 3079 3081 3084 3085 3084 3085 3086 3088 3089 3090 3090 3091 3092 3093 3094 3096 3097 3098 3100 3101 3103 3104 3105 3107 3108 3109 3110 3111 3111 3112 3112 3113 3113 3114 3114 3114 3114 3114 3114 3114 3115 3115 3116 3117 3117 3118 3118 3118 3119 3119 3120 3120 3121 3122 3122 3123 3123 3124 3124 3125 3125 3126 3126 3127 3127 3127 3128 3128 3128 3128 3129 3129 3129 3129 3129 3129 3129
3024 3026 3028 3030 3032 3034 3037 3039 3041 3043 3045 3048 3050 3052 3054 3057 3059 3061 3063 3066 3068 3069 3070 3073 3076 3076 3076 3078 3081 3083 3082 3083 3084 3085 3087 3088 3088 3089 3090 3091 3093 3094 3095 3097 3098 3099 3101 3102 3104 3105 3107 3108 3109 3110 3110 3110 3111 3111 3112 3112 3113 3113 3113 3113 3113 3113 3114 3115 3115 3115 3116 3117 3117 3118 3118 3119 3119 3120 3120 3121 3121 3122 3122 3123 3123 3124 3124 3125 3125 3125 3126 3126 3126 3127 3127 3127 3128 3128 3128 3128 3128 3128 3128
3021 3022 3024 3026 3028 3031 3034 3036 3038 3040 3043 3045 3047 3049 3051 3054 3056 3058 3060 3063 3065 3067 3068 3070 3072 3074 3074 3076 3079 3081 3080 3080 3082 3083 3084 3085 3086 3087 3089 3090 3091 3093 3094 3095 3096 3098 3099 3101 3102 3104 3105 3106 3108 3108 3109 3109 3109 3110 3111 3111 3111 3111 3112 3112 3112 3113 3113 3114 3114 3114 3115 3116 3116 3117 3117 3118 3118 3119 3119 3120 3120 3121 3121 3122 3122 3123 3123 3124 3124 3124 3125 3125 3125 3126 3126 3126 3126 3127 3127 3127 3127 3127 3127
3017 3019 3020 3023 3025 3027 3030 3033 3035 3037 3039 3042 3044 3046 3048 3051 3053 3055 3058 3060 3063 3065 3066 3068 3069 3070 3071 3073 3076 3078 3078 3078 3079 3081 3082 3083 3084 3085 3087 3089 3090 3091 3092 3093 3094 3096 3098 3099 3101 3102 3104 3105 3106 3107 3107 3108 3108 3109 3109 3110 3110 3110 3110 3111 3112 3112 3113 3112 3113 3114 3114 3115 3115 3116 3117 3117 3117 3118 3118 3119 3119 3120 3120 3121 3121 3122 3122 3123 3123 3124 3124 3124 3124 3125 3125 3125 3125 3126 3126 3126 3126 3126 3126
3014 3015 3017 3019 3021 3024 3026 3029 3031 3034 3036 3039 3041 3043 3045 3048 3050 3052 3055 3058 3060 3063 3064 3066 3066 3067 3069 3071 3073 3075 3075 3076 3077 3079 3080 3081 3082 3084 3085 3087 3089 3089 3090 3091 3093 3094 3096 3098 3099 3100 3102 3103 3104 3105 3105 3106 3107 3107 3108 3108 3109 3109 3109 3110 3111 3111 3111 3112 3112 3112 3113 3114 3115 3115 3116 3116 3116 3117 3117 3118 3119 3119 3119 3120 3120 3121 3121 3122 3122 3123 3123 3123 3124 3124 3124 3124 3124 3124 3124 3125 3125 3125 3124
3010 3012 3014 3016 3018 3020 3023 3025 3028 3030 3033 3036 3038 3040 3042 3045 3047 3049 3052 3055 3058 3060 3063 3063 3064 3066 3068 3069 3071 3072 3073 3074 3075 3076 3078 3079 3080 3082 3084 3085 3087 3088 3089 3090 3091 3093 3095 3096 3098 3099 3100 3102 3103 3104 3104 3104 3105 3106 3106 3107 3108 3108 3108 3109 3110 3110 3110 3112 3112 3112 3112 3113 3114 3114 3114 3115 3115 3116 3116 3117 3118 3118 3119 3119 3119 3120 3120 3121 3121 3121 3122 3122 3122 3123 3123 3123 3123 3123 3124 3124 3124 3124 3124
3006 3008 3010 3012 3014 3016 3019 3021 3024 3027 3030 3032 3034 3037 3039 3042 3044 3047 3049 3052 3055 3058 3060 3061 3062 3064 3066 3067 3068 3069 3070 3071 3072 3073 3075 3077 3079 3080 3082 3084 3085 3086 3087 3088 3090 3091 3093 3094 3096 3097 3099 3100 3102 3102 3103 3104 3104 3105 3105 3106 3106 3107 3107 3108 3109 3110 3110 3111 3112 3112 3111 3111 3112 3113 3114 3114 3114 3115 3115 3116 3117 3117 3118 3118 3118 3119 3119 3120 3120 3120 3121 3121 3121 3122 3122 3122 3122 3122 3122 3122 3123 3123 3122
3001 3004 3006 3009 3011 3013 3015 3018 3020 3023 3026 3029 3031 3034 3036 3039 3042 3044 3047 3049 3052 3055 3058 3059 3059 3061 3062 3064 3065 3066 3066 3068 3069 3070 3072 3074 3076 3078 3080 3082 3083 3084 3085 3087 3088 3090 3092 3093 3094 3096 3098 3099 3100 3101 3101 3102 3103 3104 3104 3104 3105 3105 3106 3107 3108 3108 3109 3110 3111 3111 3110 3110 3111 3112 3112 3113 3113 3114 3115 3115 3116 3116 3117 3117 3118 3118 3119 3119 3119 3119 3120 3120 3120 3121 3121 3121 3121 3121 3121 3121 3121 3121 3121
2996 2999 3002 3005 3007 3009 3012 3014 3017 3020 3023 3025 3028 3030 3033 3036 3039 3041 3044 3047 3050 3053 3055 3056 3057 3058 3059 3060 3062 3063 3064 3064 3065 3067 3069 3071 3074 3076 3078 3080 3081 3083 3084 3085 3087 3089 3090 3091 3093 3094 3096 3098 3099 3099 3100 3101 3102 3103 3103 3103 3104 3104 3105 3106 3106 3107 3108 3109 3109 3110 3110 3110 3110 3111 3112 3112 3113 3114 3114 3115 3115 3115 3115 3116 3117 3117 3117 3118 3118 3118 3119 3119 3119 3119 3120 3120 3120 3120 3120 3120 3120 3120 3120
2992 2995 2998 3000 3003 3005 3008 3010 3013 3016 3019 3022 3024 3027 3030 3033 3036 3039 3041 3044 3047 3050 3052 3054 3055 3056 3057 3057 3057 3059 3062 3063 3063 3064 3066 3068 3070 3074 3076 3077 3079 3080 3082 3084 3085 3087 3088 3090 3091 3093 3094 3096 3097 3098 3099 3100 3101 3101 3102 3102 3103 3103 3104 3104 3105 3106 3106 3107 3108 3109 3109 3109 3109 3110 3111 3111 3112 3113 3114 3114 3114 3114 3114 3115 3115 3115 3116 3116 3117 3117 3118 3118 3118 3118 3119 3119 3119 3119 3119 3119 3119 3119 3119
2987 2990 2994 2996 2999 3002 3004 3007 3010 3013 3016 3018 3021 3024 3027 3030 3033 3036 3039 3041 3044 3047 3049 3051 3052 3053 3054 3055 3055 3056 3060 3061 3061 3062 3064 3066 3069 3072 3074 3075 3077 3079 3080 3082 3084 3085 3086 3088 3090 3091 3093 3094 3096 3097 3098 3099 3100 3100 3101 3101 3101 3102 3103 3104 3104 3104 3105 3106 3107 3108 3109 3109 3109 3109 3110 3110 3111 3112 3112 3113 3113 3113 3113 3114 3114 3114 3114 3115 3115 3116 3116 3117 3117 3117 3117 3117 3118 3118 3118 3118 3118 3118 3118
2983 2986 2989 2992 2995 2998 3000 3004 3006 3009 3012 3015 3018 3021 3024 3027 3030 3033 3036 3039 3041 3044 3046 3048 3049 3049 3051 3053 3054 3054 3057 3058 3059 3061 3063 3066 3068 3071 3072 3074 3075 3077 3079 3080 3082 3083 3085 3086 3088 3090 3092 3093 3094 3095 3096 3097 3098 3099 3099 3099 3100 3101 3102 3103 3103 3104 3104 3105 3106 3107 3107 3108 3108 3108 3109 3109 3110 3110 3111 3112 3112 3112 3112 3113 3113 3113 3114 3114 3114 3115 3115 3115 3116 3116 3116 3116 3116 3117 3117 3117 3117 3117 3117
2979 2982 2984 2988 2991 2994 2997 3000 3003 3006 3009 3012 3015 3018 3021 3024 3027 3030 3034 3036 3039 3041 3044 3046 3047 3048 3048 3050 3052 3053 3055 3057 3059 3061 3063 3066 3068 3069 3070 3072 3074 3075 3076 3078 3079 3081 3083 3084 3086 3088 3090 3091 3093 3094 3095 3096 3097 3098 3098 3098 3099 3099 3100 3101 3102 3103 3103 3104 3105 3105 3106 3107 3107 3107 3107 3108 3108 3109 3110 3111 3111 3111 3111 3111 3112 3112 3112 3113 3113 3114 3114 3114 3114 3115 3115 3115 3115 3115 3116 3116 3116 3116 3116
2974 2977 2980 2984 2987 2990 2993 2996 2999 3003 3006 3009 3012 3015 3018 3022 3025 3028 3031 3034 3036 3039 3041 3044 3045 3046 3046 3047 3049 3051 3053 3056 3057 3058 3061 3064 3067 3068 3069 3070 3071 3073 3074 3076 3078 3079 3081 3083 3085 3087 3088 3090 3091 3092 3093 3094 3095 3096 3097 3097 3098 3098 3099 3100 3101 3102 3103 3104 3104 3104 3105 3106 3106 3106 3106 3106 3107 3108 3108 3109 3109 3110 3110 3110 3110 3111 3111 3112 3112 3112 3113 3113 3113 3114 3114 3114 3114 3114 3114 3115 3115 3114 3114
2970 2973 2976 2979 2983 2986 2989 2992 2996 2999 3003 3006 3009 3012 3015 3019 3022 3025 3029 3032 3034 3037 3039 3041 3043 3044 3044 3045 3047 3049 3051 3054 3054 3056 3059 3063 3065 3066 3066 3068 3069 3071 3072 3074 3076 3078 3080 3081 3083 3085 3087 3088 3089 3091 3092 3093 3094 3095 3096 3096 3096 3097 3098 3098 3099 3101 3103 3103 3104 3104 3105 3105 3105 3106 3106 3105 3106 3106 3107 3108 3108 3109 3109 3109 3109 3109 3110 3110 3111 3111 3111 3112 3112 3112 3113 3113 3113 3113 3114 3114 3114 3113 3113
2966 2969 2972 2975 2979 2982 2985 2989 2993 2996 3000 3003 3006 3009 3013 3016 3019 3023 3026 3029 3032 3034 3036 3039 3040 3042 3043 3044 3045 3046 3049 3051 3052 3054 3058 3061 3062 3062 3063 3065 3067 3068 3070 3072 3074 3076 3078 3080 3082 3084 3085 3087 3088 3089 3090 3091 3093 3094 3094 3094 3095 3095 3096 3097 3098 3099 3099 3101 3103 3103 3104 3104 3105 3105 3105 3104 3105 3105 3106 3106 3107 3107 3108 3108 3108 3109 3109 3109 3109 3110 3110 3110 3111 3111 3111 3112 3112 3112 3112 3112 3112 3112 3112
2962 2965 2968 2972 2975 2978 2982 2985 2990 2994 2997 3000 3003 3007 3010 3013 3017 3020 3023 3026 3029 3031 3034 3036 3038 3039 3040 3040 3042 3044 3046 3048 3050 3053 3055 3059 3059 3059 3061 3063 3064 3066 3068 3070 3072 3074 3076 3078 3080 3082 3084 3085 3087 3088 3089 3090 3091 3092 3093 3093 3094 3094 3095 3096 3096 3097 3098 3099 3100 3101 3103 3103 3104 3104 3104 3104 3104 3104 3104 3105 3105 3106 3106 3107 3107 3108 3108 3108 3108 3109 3109 3109 3109 3110 3110 3110 3111 3111 3111 3111 3111 3111 3110
2958 2961 2964 2968 2971 2974 2978 2982 2987 2991 2994 2997 3000 3004 3007 3010 3014 3017 3020 3023 3026 3029 3031 3033 3035 3036 3037 3038 3039 3042 3044 3045 3047 3050 3053 3055 3057 3057 3058 3060 3062 3064 3066 3068 3070 3072 3074 3077 3079 3080 3082 3084 3085 3086 3087 3089 3089 3090 3091 3092 3092 3093 3094 3094 3095 3096 3096 3098 3098 3099 3101 3102 3102 3103 3103 3103 3103 3104 3104 3104 3104 3105 3105 3106 3106 3107 3107 3107 3107 3107 3108 3108 3108 3109 3109 3109 3109 3109 3110 3110 3109 3109 3109
2953 2957 2961 2964 2968 2971 2975 2979 2984 2988 2991 2994 2998 3001 3004 3008 3011 3014 3017 3021 3024 3026 3029 3031 3032 3034 3034 3035 3037 3040 3042 3043 3045 3048 3050 3053 3054 3056 3057 3058 3060 3062 3064 3067 3069 3071 3073 3075 3077 3079 3080 3082 3084 3085 3086 3087 3088 3089 3089 3090 3091 3091 3092 3093 3094 3094 3095 3096 3097 3097 3098 3099 3100 3101 3102 3102 3102 3103 3103 3103 3103 3104 3104 3104 3105 3105 3105 3106 3106 3106 3106 3107 3107 3107 3108 3108 3108 3108 3109 3109 3108 3108 3108
2949 2953 2957 2960 2964 2968 2972 2975 2980 2985 2989 2992 2995 2998 3002 3006 3009 3011 3015 3018 3020 3023 3026 3028 3030 3031 3031 3033 3035 3038 3039 3041 3043 3046 3048 3051 3053 3055 3056 3057 3059 3061 3063 3065 3067 3069 3071 3074 3075 3077 3079 3081 3082 3084 3084 3085 3087 3087 3088 3089 3089 3090 3091 3092 3093 3093 3094 3094 3095 3096 3097 3097 3098 3099 3099 3100 3100 3101 3101 3102 3102 3103 3103 3103 3104 3104 3104 3104 3104 3105 3105 3105 3106 3106 3106 3106 3107 3107 3107 3107 3107 3107 3107
2945 2950 2954 2957 2961 2964 2968 2972 2976 2981 2986 2989 2992 2996 3000 3003 3006 3008 3011 3014 3018 3021 3024 3026 3027 3028 3029 3030 3033 3035 3037 3039 3041 3044 3046 3050 3052 3053 3055 3056 3058 3060 3062 3064 3066 3068 3070 3072 3074 3076 3078 3079 3081 3082 3083 3084 3085 3086 3086 3087 3088 3089 3089 3090 3091 3092 3093 3093 3094 3094 3095 3096 3097 3097 3098 3098 3099 3099 3099 3100 3100 3101 3101 3102 3102 3103 3103 3103 3103 3104 3104 3104 3104 3105 3105 3105 3105 3105 3106 3106 3105 3105 3105
2942 2946 2951 2954 2957 2961 2965 2969 2973 2977 2982 2986 2989 2994 2997 3000 3003 3005 3008 3012 3015 3019 3022 3024 3024 3024 3026 3028 3030 3033 3035 3037 3039 3041 3044 3049 3051 3052 3053 3055 3057 3059 3061 3063 3064 3067 3069 3071 3073 3074 3076 3078 3079 3080 3082 3083 3084 3084 3085 3086 3086 3087 3088 3089 3090 3091 3091 3092 3093 3093 3094 3094 3095 3096 3096 3097 3097 3097 3098 3098 3099 3099 3099 3100 3101 3101 3101 3101 3102 3102 3103 3103 3103 3103 3104 3104 3104 3104 3104 3104 3104 3104 3104
2939 2943 2947 2950 2954 2958 2961 2965 2970 2974 2979 2983 2987 2991 2994 2997 3000 3003 3006 3009 3013 3016 3019 3021 3022 3023 3024 3027 3029 3031 3033 3034 3037 3039 3043 3047 3049 3050 3051 3053 3056 3058 3060 3062 3064 3066 3068 3070 3072 3073 3075 3077 3078 3079 3080 3081 3082 3083 3084 3084 3085 3085 3086 3087 3088 3089 3090 3091 3091 3092 3093 3093 3094 3094 3095 3095 3096 3096 3097 3097 3098 3098 3098 3099 3099 3099 3099 3100 3100 3101 3101 3102 3102 3102 3102 3102 3103 3103 3103 3103 3103 3103 3103
2936 2940 2944 2947 2951 2955 2958 2962 2967 2971 2976 2980 2985 2989 2992 2994 2998 3001 3004 3008 3010 3013 3015 3018 3019 3020 3022 3024 3027 3029 3030 3032 3034 3038 3042 3045 3047 3048 3049 3052 3054 3057 3059 3060 3062 3064 3067 3069 3070 3072 3074 3075 3076 3078 3079 3080 3081 3081 3082 3082 3083 3084 3084 3085 3086 3088 3088 3089 3090 3090 3091 3092 3092 3093 3094 3094 3095 3095 3096 3096 3096 3097 3097 3097 3098 3098 3099 3099 3099 3099 3100 3100 3100 3101 3101 3101 3101 3101 3101 3101 3102 3102 3102
2934 2938 2942 2945 2949 2952 2955 2960 2964 2969 2973 2979 2983 2986 2989 2992 2996 2999 3002 3005 3008 3011 3013 3015 3017 3018 3020 3022 3025 3027 3029 3030 3033 3036 3040 3043 3044 3046 3048 3051 3054 3055 3057 3059 3061 3064 3066 3067 3069 3071 3072 3074 3075 3076 3077 3078 3079 3080 3080 3081 3081 3082 3083 3084 3085 3086 3087 3088 3088 3089 3089 3090 3091 3092 3092 3093 3094 3094 3094 3095 3095 3095 3096 3096 3096 3097 3097 3098 3098 3098 3099 3099 3099 3099 3099 3099 3100 3100 3100 3100 3100 3100 3100
2932 2936 2940 2944 2947 2949 2953 2957 2962 2966 2970 2975 2980 2984 2986 2990 2993 2996 2999 3003 3006 3008 3010 3012 3015 3018 3019 3021 3024 3025 3027 3029 3032 3035 3038 3040 3042 3044 3047 3050 3053 3054 3056 3058 3060 3063 3064 3066 3068 3069 3070 3072 3073 3075 3076 3077 3077 3078 3078 3079 3079 3080 3081 3082 3083 3084 3085 3086 3087 3087 3088 3089 3089 3090 3091 3092 3092 3093 3093 3094 3094 3094 3094 3095 3095 3095 3096 3096 3097 3097 3097 3097 3098 3098 3098 3098 3098 3099 3099 3099 3099 3099 3099
2931 2935 2939 2943 2945 2948 2951 2955 2960 2964 2968 2972 2978 2982 2983 2987 2990 2994 2996 2999 3002 3005 3007 3009 3013 3016 3018 3020 3022 3024 3026 3029 3030 3032 3035 3037 3039 3042 3044 3048 3050 3053 3054 3057 3059 3061 3063 3065 3066 3068 3069 3070 3072 3073 3074 3075 3076 3076 3077 3077 3078 3079 3080 3081 3082 3083 3084 3084 3085 3086 3087 3087 3088 3089 3089 3089 3091 3091 3091 3092 3093 3093 3093 3093 3094 3094 3094 3095 3095 3095 3096 3096 3096 3096 3097 3097 3097 3097 3097 3097 3097 3097 3097
2930 2935 2939 2942 2944 2947 2949 2954 2958 2962 2966 2970 2975 2979 2981 2985 2989 2992 2994 2997 2999 3002 3004 3007 3010 3013 3016 3018 3020 3022 3024 3027 3029 3030 3033 3036 3038 3040 3042 3045 3048 3050 3053 3055 3058 3060 3062 3063 3064 3066 3067 3069 3070 3072 3073 3073 3074 3074 3075 3075 3076 3077 3078 3079 3080 3081 3082 3083 3084 3084 3085 3086 3087 3087 3087 3088 3089 3089 3089 3090 3091 3091 3092 3092 3092 3092 3093 3093 3094 3094 3094 3094 3095 3095 3095 3095 3096 3096 3096 3096 3095 3095 3095
2929 2934 2939 2941 2944 2946 2949 2952 2957 2961 2965 2969 2973 2977 2980 2984 2987 2990 2992 2995 2998 3000 3003 3006 3009 3011 3013 3016 3018 3020 3023 3025 3028 3030 3033 3035 3037 3039 3041 3043 3045 3048 3051 3054 3056 3059 3060 3062 3063 3064 3065 3067 3068 3070 3071 3072 3072 3073 3073 3074 3074 3075 3077 3078 3079 3080 3081 3081 3082 3083 3084 3085 3085 3086 3086 3087 3087 3088 3088 3089 3089 3089 3090 3090 3090 3091 3091 3092 3092 3093 3093 3093 3094 3094 3094 3094 3094 3094 3094 3094 3094 3094 3094
2929 2934 2938 2940 2943 2945 2948 2952 2956 2960 2964 2968 2971 2976 2980 2983 2986 2989 2991 2994 2997 2999 3002 3005 3007 3009 3011 3014 3016 3019 3021 3023 3025 3028 3031 3033 3036 3038 3039 3041 3043 3046 3049 3051 3054 3057 3059 3060 3061 3063 3064 3065 3066 3068 3069 3070 3071 3071 3072 3072 3073 3074 3075 3076 3077 3078 3079 3080 3081 3081 3082 3083 3084 3084 3084 3085 3086 3086 3087 3087 3088 3088 3089 3089 3089 3089 3090 3090 3091 3091 3092 3092 3092 3093 3093 3093 3093 3093 3093 3093 3093 3092 3092
2928 2932 2937 2940 2942 2945 2948 2951 2955 2959 2963 2967 2971 2975 2979 2982 2985 2988 2990 2992 2994 2997 2999 3002 3005 3008 3010 3013 3015 3017 3019 3021 3022 3023 3027 3031 3034 3037 3039 3040 3042 3044 3047 3050 3052 3054 3057 3058 3059 3061 3061 3063 3064 3066 3067 3068 3069 3070 3070 3071 3072 3073 3074 3075 3076 3076 3077 3078 3079 3080 3080 3081 3081 3082 3083 3083 3084 3084 3085 3086 3087 3087 3088 3088 3088 3089 3089 3089 3090 3090 3090 3091 3091 3091 3091 3091 3091 3091 3091 3091 3091 3091 3091
2927 2932 2936 2939 2942 2945 2948 2951 2955 2959 2963 2967 2970 2974 2978 2981 2984 2986 2988 2990 2992 2994 2996 2999 3002 3006 3009 3012 3014 3016 3019 3019 3020 3023 3026 3029 3034 3037 3039 3041 3042 3044 3046 3049 3051 3053 3055 3057 3058 3059 3059 3061 3062 3064 3065 3066 3067 3068 3069 3069 3070 3071 3072 3073 3074 3075 3076 3076 3077 3078 3079 3079 3080 3080 3081 3082 3082 3083 3084 3084 3085 3086 3086 3087 3087 3088 3088 3088 3089 3089 3089 3089 3089 3089 3090 3090 3090 3090 3090 3089 3089 3089 3089
2927 2931 2936 2939 2942 2945 2949 2952 2955 2959 2963 2966 2969 2973 2976 2979 2982 2984 2986 2988 2990 2993 2995 2998 3000 3004 3007 3011 3014 3017 3019 3019 3021 3024 3027 3029 3032 3035 3037 3039 3041 3043 3045 3048 3050 3052 3054 3055 3056 3057 3058 3059 3060 3062 3064 3065 3066 3067 3068 3068 3069 3070 3071 3071 3072 3073 3074 3074 3075 3076 3077 3078 3078 3079 3079 3080 3081 3081 3082 3083 3084 3084 3085 3085 3086 3086 3086 3087 3087 3087 3088 3088 3088 3088 3088 3088 3088 3088 3088 3088 3088 3088 3088
2927 2931 2935 2939 2942 2945 2949 2952 2955 2959 2962 2966 2969 2972 2975 2978 2979 2981 2984 2986 2989 2991 2994 2997 2999 3002 3005 3009 3012 3014 3016 3019 3022 3024 3027 3028 3030 3032 3034 3036 3039 3042 3046 3048 3049 3051 3052 3054 3054 3055 3056 3058 3059 3061 3062 3063 3064 3065 3066 3067 3067 3068 3069 3069 3070 3071 3072 3073 3074 3074 3075 3076 3076 3077 3078 3079 3079 3080 3081 3081 3082 3083 3083 3084 3084 3084 3085 3085 3086 3086 3086 3086 3087 3087 3087 3087 3087 3087 3087 3087 3086 3086 3086
2927 2931 2935 2939 2943 2945 2948 2951 2955 2959 2962 2965 2968 2971 2974 2976 2978 2980 2982 2984 2987 2990 2993 2996 2999 3001 3004 3007 3009 3012 3014 3018 3021 3024 3025 3027 3029 3031 3033 3035 3039 3042 3044 3046 3048 3049 3051 3053 3054 3055 3056 3057 3058 3059 3061 3062 3063 3064 3064 3065 3066 3066 3067 3068 3069 3069 3070 3071 3072 3073 3074 3074 3075 3076 3076 3077 3078 3079 3079 3080 3080 3081 3081 3082 3082 3082 3083 3083 3084 3084 3084 3085 3085 3085 3085 3085 3085 3085 3085 3085 3085 3085 3084
2928 2932 2935 2939 2943 2945 2948 2951 2954 2958 2961 2964 2967 2970 2973 2975 2978 2980 2982 2985 2987 2990 2993 2995 2998 3001 3004 3005 3008 3010 3014 3017 3020 3022 3024 3026 3029 3031 3034 3036 3038 3039 3042 3043 3045 3048 3051 3053 3054 3055 3056 3056 3057 3058 3059 3060 3061 3062 3063 3063 3064 3064 3065 3066 3067 3068 3069 3069 3070 3071 3072 3073 3074 3074 3075 3076 3076 3077 3078 3078 3079 3079 3079 3080 3080 3081 3081 3082 3082 3083 3083 3084 3084 3084 3084 3084 3084 3084 3084 3084 3083 3083 3083
2929 2932 2935 2939 2942 2945 2949 2952 2954 2958 2961 2964 2967 2969 2973 2975 2977 2980 2983 2985 2987 2990 2993 2995 2998 3001 3004 3006 3008 3010 3013 3015 3018 3020 3022 3025 3028 3031 3034 3036 3038 3039 3041 3042 3044 3047 3050 3052 3053 3054 3055 3055 3056 3057 3058 3059 3060 3060 3061 3062 3062 3063 3064 3064 3065 3066 3067 3068 3069 3069 3070 3071 3072 3073 3074 3074 3075 3075 3076 3076 3077 3077 3078 3078 3079 3079 3080 3080 3080 3081 3082 3082 3082 3082 3082 3082 3082 3082 3082 3082 3082 3082 3082
2929 2932 2936 2939 2942 2945 2949 2952 2955 2958 2961 2964 2967 2969 2972 2974 2977 2979 2982 2984 2987 2990 2993 2996 2999 3001 3004 3007 3009 3010 3012 3013 3015 3018 3021 3024 3027 3030 3033 3036 3039 3041 3043 3044 3046 3048 3050 3052 3053 3053 3054 3054 3054 3055 3056 3057 3058 3059 3059 3060 3061 3062 3062 3063 3064 3064 3065 3066 3067 3068 3069 3069 3070 3071 3072 3072 3073 3074 3074 3074 3075 3076 3076 3077 3077 3078 3078 3079 3079 3080 3080 3080 3080 3080 3080 3080 3080 3080 3080 3080 3080 3080 3080
2930 2934 2936 2939 2943 2946 2949 2953 2955 2959 2962 2964 2967 2970 2972 2974 2977 2979 2982 2984 2987 2990 2994 2995 2998 3001 3003 3006 3008 3009 3011 3012 3014 3015 3018 3022 3026 3029 3031 3034 3036 3038 3040 3042 3044 3047 3049 3050 3051 3052 3052 3053 3053 3053 3054 3055 3056 3057 3058 3059 3059 3060 3061 3062 3062 3063 3064 3065 3066 3067 3067 3068 3069 3069 3070 3071 3071 3072 3073 3073 3074 3074 3074 3075 3076 3076 3077 3077 3078 3078 3079 3079 3079 3079 3079 3079 3079 3079 3079 3079 3079 3079 3079
2932 2935 2938 2940 2944 2947 2950 2953 2956 2959 2962 2965 2967 2970 2972 2974 2976 2979 2982 2985 2988 2990 2993 2995 2998 3000 3003 3005 3007 3009 3011 3012 3014 3015 3017 3020 3023 3026 3029 3032 3034 3036 3037 3039 3042 3044 3046 3048 3049 3050 3050 3050 3051 3051 3052 3053 3054 3055 3056 3057 3058 3059 3059 3060 3061 3062 3063 3064 3064 3065 3066 3067 3068 3068 3069 3069 3070 3070 3071 3071 3072 3073 3073 3074 3074 3075 3075 3076 3076 3077 3077 3077 3077 3077 3077 3077 3077 3077 3077 3077 3077 3077 3077
2933 2936 2939 2941 2944 2947 2950 2953 2957 2959 2962 2965 2968 2970 2972 2974 2976 2979 2981 2984 2988 2990 2992 2995 2997 2999 3002 3004 3006 3009 3011 3013 3014 3016 3018 3020 3022 3024 3028 3031 3033 3035 3036 3039 3040 3043 3044 3046 3047 3047 3048 3049 3049 3049 3050 3051 3052 3054 3055 3056 3057 3057 3058 3059 3060 3060 3061 3062 3063 3064 3065 3065 3066 3067 3067 3068 3069 3069 3069 3070 3071 3071 3072 3072 3073 3074 3074 3074 3075 3075 3075 3075 3075 3076 3076 3076 3076 3076 3075 3075 3075 3075 3075